Weather History for McAlester, OK

Change the Weather History Date:

Monday, January 28, 2013

  Actual Average Record
Temperature  
Mean Temperature 68 °F -  
Max Temperature 73 °F 51 °F 77 °F (1970)
Min Temperature 64 °F 30 °F 8 °F (1963)
Cooling Degree Days 4    
Growing Degree Days 18 (Base 50)    
Moisture  
Dew Point 61 °F    
Average Humidity 75    
Maximum Humidity 83    
Minimum Humidity 65    
Precipitation  
Precipitation 0.00 in - - ()
Sea Level Pressure  
Sea Level Pressure 29.91 in    
Wind  
Wind Speed 13 mph (South)    
Max Wind Speed 17 mph    
Max Gust Speed 30 mph    
Visibility 10 miles    
Events      
Averages and records for this station are not official NWS values.
T = Trace of Precipitation, MM = Missing Value Source: NWS Daily Summary

Daily Weather History Graph

Daily Weather History Graph

Search for Another Location

Airport:

Trip Planner

Search our weather history database for the weather conditions in past years. The results will help you decide how hot, cold, wet, or windy it might be!

Date:

Astronomy

Jan. 28, 2013 Rise Set
Actual Time 7:24 AM CST 5:48 PM CST
Civil Twilight 6:57 AM CST 6:15 PM CST
Nautical Twilight 6:27 AM CST 6:45 PM CST
Astronomical Twilight 5:57 AM CST 7:15 PM CST
Moon 7:37 PM CST (1/28) 7:56 AM CST (1/28)
Length of Visible Light 11h 17m
Length of Day
10h 24m
Full, 98% of the Moon is Illuminated
Jan 28
Full
Feb 3
Last Quarter
Feb 10
New
Feb 17
First Quarter
Feb 25
Full

Hourly Weather History & Observations

Time (CST) Temp. Dew Point Humidity Pressure Visibility Wind Dir Wind Speed Gust Speed Precip Events Conditions
12:00 AM 64.4 °F 57.2 °F 77% 29.94 in 10.0 mi South 12.7 mph 20.7 mph N/A   Overcast
12:53 AM 66.0 °F 59.0 °F 78% 29.94 in 10.0 mi South 13.8 mph 24.2 mph N/A   Overcast
1:53 AM 66.0 °F 60.1 °F 81% 29.94 in 10.0 mi South 13.8 mph 20.7 mph N/A   Overcast
2:53 AM 66.0 °F 60.1 °F 81% 29.94 in 10.0 mi South 11.5 mph 20.7 mph N/A   Overcast
3:53 AM 66.9 °F 61.0 °F 81% 29.95 in 10.0 mi South 11.5 mph 19.6 mph N/A   Overcast
4:53 AM 66.9 °F 61.0 °F 81% 29.94 in 10.0 mi South 12.7 mph 23.0 mph N/A   Overcast
5:53 AM 66.9 °F 61.0 °F 81% 29.95 in 10.0 mi South 15.0 mph 24.2 mph N/A   Overcast
6:41 AM 66.2 °F 60.8 °F 83% 29.97 in 10.0 mi South 11.5 mph 26.5 mph N/A   Mostly Cloudy
6:53 AM 66.9 °F 61.0 °F 81% 29.96 in 10.0 mi South 12.7 mph 19.6 mph N/A   Mostly Cloudy
7:53 AM 66.9 °F 61.0 °F 81% 29.97 in 10.0 mi South 12.7 mph 20.7 mph N/A   Overcast
8:00 AM 66.2 °F 60.8 °F 83% 29.99 in 10.0 mi South 12.7 mph 20.7 mph N/A   Mostly Cloudy
8:53 AM 66.9 °F 61.0 °F 81% 29.98 in 10.0 mi South 13.8 mph 21.9 mph N/A   Overcast
9:53 AM 68.0 °F 61.0 °F 78% 29.99 in 10.0 mi South 16.1 mph 23.0 mph N/A   Overcast
10:53 AM 69.1 °F 61.0 °F 75% 29.99 in 10.0 mi South 13.8 mph 24.2 mph N/A   Overcast
11:53 AM 71.1 °F 61.0 °F 70% 29.96 in 10.0 mi South 17.3 mph 24.2 mph N/A   Overcast
12:17 PM 73.4 °F 60.8 °F 65% 29.95 in 10.0 mi South 10.4 mph 29.9 mph N/A   Overcast
12:53 PM 72.0 °F 61.0 °F 68% 29.91 in 10.0 mi South 9.2 mph 21.9 mph N/A   Overcast
1:01 PM 71.6 °F 60.8 °F 69% 29.92 in 10.0 mi South 8.1 mph 20.7 mph N/A   Overcast
1:16 PM 71.6 °F 60.8 °F 69% 29.92 in 10.0 mi South 9.2 mph 21.9 mph N/A   Overcast
1:53 PM 71.1 °F 61.0 °F 70% 29.88 in 10.0 mi South 16.1 mph 26.5 mph N/A   Overcast
2:53 PM 70.0 °F 61.0 °F 73% 29.86 in 10.0 mi SSE 9.2 mph 19.6 mph N/A   Overcast
3:53 PM 71.1 °F 62.1 °F 73% 29.84 in 10.0 mi SSE 9.2 mph 20.7 mph N/A   Overcast
4:53 PM 72.0 °F 62.1 °F 71% 29.83 in 10.0 mi SSE 11.5 mph 18.4 mph N/A   Overcast
5:53 PM 71.1 °F 62.1 °F 73% 29.83 in 10.0 mi South 13.8 mph 21.9 mph N/A   Mostly Cloudy
6:53 PM 71.1 °F 62.1 °F 73% 29.84 in 10.0 mi SSE 10.4 mph 20.7 mph N/A   Overcast
7:53 PM 71.1 °F 62.1 °F 73% 29.83 in 10.0 mi SSE 11.5 mph 21.9 mph N/A   Overcast
8:53 PM 71.1 °F 61.0 °F 70% 29.82 in 10.0 mi SSE 12.7 mph 19.6 mph N/A   Overcast
9:53 PM 72.0 °F 60.1 °F 66% 29.81 in 10.0 mi South 13.8 mph 23.0 mph N/A   Overcast
10:53 PM 71.1 °F 59.0 °F 66% 29.80 in 10.0 mi South 15.0 mph 26.5 mph N/A   Mostly Cloudy
11:53 PM 70.0 °F 57.9 °F 65% 29.79 in 10.0 mi SSE 11.5 mph 23.0 mph N/A   Partly Cloudy